Location: São Paulo
(23.5507°S, 46.6334°W)
Time: 08:13:19
(UTC-03:00)

Vanguard 3 - Pass Details

Date: 20 February 2026
Orbit: 507 x 3205 km, 33.4° (Epoch: 7 March)

Event Time Altitude Azimuth Distance (km) Brightness Sun altitude
Exits shadow 04:54:35 13° 259° (W) 3,469 9.8 -14.7°
Maximum altitude 05:03:50 56° 183° (S) 2,453 9.6 -12.7°
Drops below altitude 10° 05:20:27 10° 107° (ESE) 5,839 13.2 -9.0°
Sets 05:25:45 0° 103° (ESE) 7,053 14.5 -7.9°
